Вернуться в каталог

STARLINK-5906

АктивенСвязьVLEO
NORAD 55962·PAYLOAD·🇺🇸 United States

Запущен Mar 17, 2023 с Vandenberg Space Force Base

Loading…

Ближайшие Пролёты (ближайшие 24 часа)

TLE

СвежийSource: CelesTrak SupGP

Эпоха: Sep 15, 2026, 02:56 UTC

1 55962C 23037BA  26258.12270833  .00034412  00000+0  28838-2 0  2583
2 55962  70.0006 146.9630 0003005 273.2074 135.2289 14.98314308    16

Отслеживайте STARLINK-5906 в реальном времени с AllMySat

Download on the App Store